Tracking 18844 objects as of 21-Nov-2017
HD Live streaming from Space Station
objects crossing your sky now

OPS 9433 (DSCS 2-3)

Track OPS 9433 (DSCS 2-3) now!
OPS 9433 (DSCS 2-3) is classified as:


NORAD ID: 6973
Int'l Code: 1973-100A
Perigee: 36,426.4 km
Apogee: 36,661.3 km
Inclination: 12.5 °
Period: 1,474.6 minutes
Semi major axis: 42914 km
RCS: 5.3322 m2 (large)
Launch date: December 13, 1973
Source: United States (US)
Launch site: AIR FORCE EASTERN TEST RANGE (AFETR)
aabbcc
Your satellite tracking list
Your tracking list is empty




NASA's NSSDC Master Catalog

Two Line Element Set (TLE):
1  6973U 73100A   17324.40011194 -.00000070 +00000-0 +00000-0 0  9991
2  6973 012.5294 315.1011 0027366 152.1488 196.7964 00.97654423089251
Source of the keplerian elements: AFSPC